Find Starlink 11467

NORAD ID: 62068 Int'l Des: 2024-217 Owner: SPXS Country: US Constellation: starlink operational
LEOCIRCULAR

当前视图

正在加载3D地球...

About Starlink 11467

Starlink 11467 (NORAD 62068) is a starlink constellation satellite (v2 mini d2c) launched Nov 24, 2024 by SPXS of US. It operates in LEO, CIRCULAR orbit with a mass of 960.00 kg.

关于 Starlink 11467

正在加载描述...

即将过境

Passes for default location (London). Set your location on the main map for personalized predictions.

高度历史

Loading altitude history...

两行轨道根数

1 62068U 24217M 26168.64314056 .00193329 00000-0 15618-2 0 9990
2 62068 53.1580 298.4260 0001187 78.5411 281.5740 15.69739106 90878
Epoch: Jun 17, 2026 • Age: 12 hours

当前状态

高度 376.9 km
速度 7.68 km/s
星下点 -49.48°S, 137.68°W
发射日期 Nov 24, 2024
运行时间 1.5 years
类型 internet

技术详情

分类 Payload
质量 960.00 kg
干质量 910.00 kg
总质量 960.00 kg
长度 0.30 m
直径 4.10 m
跨度 29.00 m
形状 Box + pan
制造商 SPXS
平台类型 Starlink V2MD
阶段状态 In Orbit
所有者/国家 SPXS/US

Most Searched